Time,TemperatureF,DewpointF,PressureIn,WindDirection,WindDirectionDegrees,WindSpeedMPH,WindSpeedGustMPH,Humidity,HourlyPrecipIn,Conditions,Clouds,dailyrainin,SoftwareType,DateUTC
2013-01-24 00:00:00,53.3,45.9,30.06,ENE,71,0.0,0.0,76,0.00,,OVC050,0.00,VWS V14.01,2013-01-24 08:00:00,
2013-01-24 00:05:00,53.3,45.9,30.06,ENE,71,0.0,0.0,76,0.00,,OVC050,0.00,VWS V14.01,2013-01-24 08:05:00,
2013-01-24 00:10:00,53.3,46.3,30.06,ENE,71,0.0,1.0,77,0.00,,OVC050,0.00,VWS V14.01,2013-01-24 08:10:00,
2013-01-24 00:15:00,53.3,46.6,30.07,ENE,71,0.0,0.0,78,0.00,,OVC050,0.00,VWS V14.01,2013-01-24 08:15:00,
2013-01-24 00:20:00,53.2,46.9,30.07,ENE,71,0.0,1.0,79,0.00,,OVC050,0.00,VWS V14.01,2013-01-24 08:20:00,
2013-01-24 00:25:00,53.1,47.1,30.07,ENE,58,2.0,3.0,80,0.00,,OVC050,0.00,VWS V14.01,2013-01-24 08:25:00,
2013-01-24 00:30:00,52.9,47.6,30.07,NNE,13,2.0,4.0,82,0.00,,OVC050,0.00,VWS V14.01,2013-01-24 08:30:00,
2013-01-24 00:35:00,52.9,47.9,30.07,NNE,13,0.0,4.0,83,0.00,,OVC050,0.00,VWS V14.01,2013-01-24 08:35:00,
2013-01-24 00:40:00,52.8,47.8,30.07,NNE,13,0.0,1.0,83,0.00,,OVC050,0.00,VWS V14.01,2013-01-24 08:40:00,
2013-01-24 00:45:00,52.9,48.2,30.06,NNE,15,1.0,4.0,84,0.01,,OVC050,0.01,VWS V14.01,2013-01-24 08:45:00,
2013-01-24 00:50:00,52.9,48.2,30.06,NNE,15,0.0,2.0,84,0.01,,-RA,0.01,VWS V14.01,2013-01-24 08:50:00,
2013-01-24 00:55:00,52.9,48.2,30.06,NNE,15,0.0,0.0,84,0.01,,-RA,0.01,VWS V14.01,2013-01-24 08:55:00,
2013-01-24 01:00:00,52.9,48.5,30.05,WSW,250,0.0,3.0,85,0.01,,-RA,0.01,VWS V14.01,2013-01-24 09:00:00,
2013-01-24 01:05:00,52.9,48.8,30.05,WSW,250,0.0,0.0,86,0.02,,-RA,0.02,VWS V14.01,2013-01-24 09:05:00,
2013-01-24 01:10:00,52.9,48.8,30.05,WSW,250,0.0,0.0,86,0.03,,-RA,0.03,VWS V14.01,2013-01-24 09:10:00,
2013-01-24 01:15:00,52.8,48.7,30.06,WSW,250,0.0,0.0,86,0.04,,-RA,0.04,VWS V14.01,2013-01-24 09:15:00,
2013-01-24 01:20:00,52.6,48.8,30.06,WSW,250,0.0,0.0,87,0.04,,-RA,0.04,VWS V14.01,2013-01-24 09:20:00,
2013-01-24 01:25:00,52.6,48.8,30.06,WSW,250,0.0,0.0,87,0.05,,-RA,0.05,VWS V14.01,2013-01-24 09:25:00,
2013-01-24 01:30:00,52.5,49.0,30.06,WSW,250,0.0,0.0,88,0.06,,-RA,0.06,VWS V14.01,2013-01-24 09:30:00,
2013-01-24 01:35:00,52.3,48.9,30.06,WSW,250,0.0,0.0,88,0.06,,BKN110,0.06,VWS V14.01,2013-01-24 09:35:00,
2013-01-24 01:40:00,52.2,49.1,30.06,WSW,250,0.0,0.0,89,0.07,,BKN110,0.07,VWS V14.01,2013-01-24 09:40:00,
2013-01-24 01:45:00,52.2,49.1,30.07,WSW,250,0.0,0.0,89,0.08,,-RA,0.08,VWS V14.01,2013-01-24 09:45:00,
2013-01-24 01:46:00,52.3,48.9,30.06,WSW,250,0.0,0.0,88,0.06,,-RA,0.06,VWS V14.01,2013-01-24 09:46:00,
2013-01-24 01:50:00,52.2,49.1,30.07,WSW,250,0.0,0.0,89,0.08,,-RA,0.09,VWS V14.01,2013-01-24 09:50:00,
2013-01-24 01:51:00,52.2,49.1,30.06,WSW,250,0.0,0.0,89,0.07,,-RA,0.07,VWS V14.01,2013-01-24 09:51:00,
2013-01-24 01:55:00,52.2,49.4,30.07,WSW,250,0.0,0.0,90,0.09,,-RA,0.10,VWS V14.01,2013-01-24 09:55:00,
2013-01-24 02:00:00,52.2,49.4,30.07,WSW,250,0.0,0.0,90,0.11,,BKN110,0.12,VWS V14.01,2013-01-24 10:00:00,
2013-01-24 02:05:00,52.2,49.4,30.07,WSW,250,0.0,0.0,90,0.14,,BKN110,0.15,VWS V14.01,2013-01-24 10:05:00,
2013-01-24 02:10:00,52.2,49.4,30.07,WSW,250,0.0,0.0,90,0.14,,RA,0.16,VWS V14.01,2013-01-24 10:10:00,
2013-01-24 02:11:00,52.2,49.4,30.07,WSW,250,0.0,0.0,90,0.11,,-RA,0.12,VWS V14.01,2013-01-24 10:11:00,
2013-01-24 02:15:00,52.2,49.7,30.07,WSW,250,0.0,0.0,91,0.14,,RA,0.17,VWS V14.01,2013-01-24 10:15:00,
2013-01-24 02:16:00,52.2,49.4,30.07,WSW,250,0.0,0.0,90,0.14,,-RA,0.15,VWS V14.01,2013-01-24 10:16:00,
2013-01-24 02:20:00,52.0,49.5,30.07,WSW,250,0.0,0.0,91,0.14,,RA,0.18,VWS V14.01,2013-01-24 10:20:00,
2013-01-24 02:25:00,52.0,49.5,30.07,WSW,250,0.0,0.0,91,0.16,,RA,0.20,VWS V14.01,2013-01-24 10:25:00,
2013-01-24 02:30:00,52.0,49.8,30.07,WSW,250,0.0,0.0,92,0.16,,-RA,0.21,VWS V14.01,2013-01-24 10:30:00,
2013-01-24 02:35:00,52.0,49.8,30.07,WSW,250,0.0,0.0,92,0.16,,BKN110,0.22,VWS V14.01,2013-01-24 10:35:00,
2013-01-24 02:40:00,52.0,49.8,30.07,WSW,250,0.0,0.0,92,0.17,,BKN110,0.23,VWS V14.01,2013-01-24 10:40:00,
2013-01-24 02:45:00,52.0,49.8,30.07,WSW,250,0.0,0.0,92,0.18,,BKN110,0.25,VWS V14.01,2013-01-24 10:45:00,
2013-01-24 02:46:00,52.0,49.8,30.07,WSW,250,0.0,0.0,92,0.16,,-RA,0.22,VWS V14.01,2013-01-24 10:46:00,
2013-01-24 02:50:00,52.0,49.8,30.07,WSW,250,0.0,1.0,92,0.18,,RA,0.26,VWS V14.01,2013-01-24 10:50:00,
2013-01-24 02:51:00,52.0,49.8,30.07,WSW,250,0.0,0.0,92,0.17,,-RA,0.23,VWS V14.01,2013-01-24 10:51:00,
2013-01-24 02:55:00,51.9,49.7,30.07,WSW,250,0.0,0.0,92,0.18,,RA,0.27,VWS V14.01,2013-01-24 10:55:00,
2013-01-24 03:00:00,51.9,49.9,30.06,WSW,250,0.0,0.0,93,0.18,,BKN110,0.28,VWS V14.01,2013-01-24 11:00:00,
2013-01-24 03:05:00,51.9,49.9,30.06,WSW,250,0.0,1.0,93,0.17,,BKN110,0.29,VWS V14.01,2013-01-24 11:05:00,
2013-01-24 03:10:00,51.9,49.9,30.06,WSW,250,0.0,1.0,93,0.15,,RA,0.30,VWS V14.01,2013-01-24 11:10:00,
2013-01-24 03:11:00,51.9,49.9,30.06,WSW,250,0.0,0.0,93,0.18,,RA,0.28,VWS V14.01,2013-01-24 11:11:00,
2013-01-24 03:15:00,51.7,49.8,30.05,WSW,250,0.0,0.0,93,0.15,,RA,0.31,VWS V14.01,2013-01-24 11:15:00,
2013-01-24 03:16:00,51.9,49.9,30.06,WSW,250,0.0,1.0,93,0.17,,RA,0.29,VWS V14.01,2013-01-24 11:16:00,
2013-01-24 03:20:00,51.7,49.8,30.05,WSW,250,0.0,0.0,93,0.14,,BKN110,0.31,VWS V14.01,2013-01-24 11:20:00,
2013-01-24 03:25:00,51.7,50.0,30.05,WSW,250,0.0,0.0,94,0.14,,BKN110,0.32,VWS V14.01,2013-01-24 11:25:00,
2013-01-24 03:30:00,51.9,50.2,30.05,WSW,250,0.0,0.0,94,0.12,,RA,0.32,VWS V14.01,2013-01-24 11:30:00,
2013-01-24 03:31:00,51.7,49.8,30.05,WSW,250,0.0,0.0,93,0.14,,RA,0.31,VWS V14.01,2013-01-24 11:31:00,
2013-01-24 03:35:00,51.7,50.0,30.05,WSW,250,0.0,0.0,94,0.11,,BKN110,0.32,VWS V14.01,2013-01-24 11:35:00,
2013-01-24 03:36:00,51.7,50.0,30.05,WSW,250,0.0,0.0,94,0.14,,RA,0.32,VWS V14.01,2013-01-24 11:36:00,
2013-01-24 03:40:00,51.9,50.2,30.05,WSW,250,0.0,0.0,94,0.10,,BKN110,0.32,VWS V14.01,2013-01-24 11:40:00,
2013-01-24 03:45:00,51.9,50.2,30.05,WSW,250,0.0,0.0,94,0.09,,RA,0.32,VWS V14.01,2013-01-24 11:45:00,
2013-01-24 03:46:00,51.7,50.0,30.05,WSW,250,0.0,0.0,94,0.11,,RA,0.32,VWS V14.01,2013-01-24 11:46:00,
2013-01-24 03:50:00,51.9,50.2,30.05,WSW,250,0.0,0.0,94,0.07,,-RA,0.32,VWS V14.01,2013-01-24 11:50:00,
2013-01-24 03:51:00,51.9,50.2,30.05,WSW,250,0.0,0.0,94,0.10,,RA,0.32,VWS V14.01,2013-01-24 11:51:00,
2013-01-24 03:55:00,52.0,50.3,30.05,WSW,250,0.0,3.0,94,0.06,,BKN110,0.32,VWS V14.01,2013-01-24 11:55:00,
2013-01-24 04:00:00,52.0,50.3,30.05,East,80,0.0,3.0,94,0.05,,-RA,0.32,VWS V14.01,2013-01-24 12:00:00,
2013-01-24 04:05:00,51.9,50.2,30.05,East,80,0.0,0.0,94,0.04,,BKN110,0.32,VWS V14.01,2013-01-24 12:05:00,
2013-01-24 04:06:00,52.0,50.3,30.05,WSW,250,0.0,3.0,94,0.06,,-RA,0.32,VWS V14.01,2013-01-24 12:06:00,
2013-01-24 04:10:00,51.9,50.2,30.05,East,80,0.0,0.0,94,0.04,,BKN110,0.33,VWS V14.01,2013-01-24 12:10:00,
2013-01-24 04:15:00,51.9,50.2,30.04,East,80,0.0,0.0,94,0.03,,BKN110,0.33,VWS V14.01,2013-01-24 12:15:00,
2013-01-24 04:16:00,51.9,50.2,30.05,East,80,0.0,0.0,94,0.04,,-RA,0.32,VWS V14.01,2013-01-24 12:16:00,
2013-01-24 04:20:00,51.9,50.5,30.04,East,80,0.0,0.0,95,0.02,,BKN110,0.33,VWS V14.01,2013-01-24 12:20:00,
2013-01-24 04:21:00,51.9,50.2,30.05,East,80,0.0,0.0,94,0.04,,-RA,0.33,VWS V14.01,2013-01-24 12:21:00,
2013-01-24 04:25:00,51.9,50.5,30.04,East,80,0.0,0.0,95,0.02,,-RA,0.33,VWS V14.01,2013-01-24 12:25:00,
2013-01-24 04:26:00,51.9,50.2,30.04,East,80,0.0,0.0,94,0.03,,-RA,0.33,VWS V14.01,2013-01-24 12:26:00,
2013-01-24 04:30:00,51.9,50.5,30.04,East,80,0.0,0.0,95,0.01,,,0.33,VWS V14.01,2013-01-24 12:30:00,
2013-01-24 04:31:00,51.9,50.5,30.04,East,80,0.0,0.0,95,0.02,,-RA,0.33,VWS V14.01,2013-01-24 12:31:00,
2013-01-24 04:35:00,51.9,50.5,30.04,East,80,0.0,1.0,95,0.01,,,0.33,VWS V14.01,2013-01-24 12:35:00,
2013-01-24 04:40:00,51.9,50.5,30.04,East,80,0.0,0.0,95,0.01,,BKN110,0.33,VWS V14.01,2013-01-24 12:40:00,
2013-01-24 04:45:00,51.9,50.5,30.04,East,80,0.0,1.0,95,0.01,,BKN110,0.33,VWS V14.01,2013-01-24 12:45:00,
2013-01-24 04:50:00,51.9,50.5,30.04,East,80,0.0,0.0,95,0.01,,BKN110,0.33,VWS V14.01,2013-01-24 12:50:00,
2013-01-24 04:51:00,51.9,50.5,30.04,East,80,0.0,0.0,95,0.01,,,0.33,VWS V14.01,2013-01-24 12:51:00,
2013-01-24 04:55:00,51.9,50.5,30.04,East,80,0.0,0.0,95,0.01,,BKN110,0.33,VWS V14.01,2013-01-24 12:55:00,
2013-01-24 04:56:00,51.9,50.5,30.04,East,80,0.0,1.0,95,0.01,,,0.33,VWS V14.01,2013-01-24 12:56:00,
2013-01-24 05:00:00,52.0,50.6,30.04,East,80,0.0,0.0,95,0.01,,BKN110,0.33,VWS V14.01,2013-01-24 13:00:00,
2013-01-24 05:01:00,51.9,50.5,30.04,East,80,0.0,0.0,95,0.01,,,0.33,VWS V14.01,2013-01-24 13:01:00,
2013-01-24 05:05:00,52.0,50.6,30.04,East,80,0.0,0.0,95,0.01,,BKN110,0.33,VWS V14.01,2013-01-24 13:05:00,
2013-01-24 05:06:00,51.9,50.5,30.04,East,80,0.0,0.0,95,0.01,,,0.33,VWS V14.01,2013-01-24 13:06:00,
2013-01-24 05:10:00,52.0,50.6,30.04,East,80,0.0,0.0,95,0.01,,BKN110,0.33,VWS V14.01,2013-01-24 13:10:00,
2013-01-24 05:11:00,52.0,50.6,30.04,East,80,0.0,0.0,95,0.01,,,0.33,VWS V14.01,2013-01-24 13:11:00,
2013-01-24 05:15:00,52.0,50.6,30.04,East,80,0.0,0.0,95,0.00,,BKN110,0.33,VWS V14.01,2013-01-24 13:15:00,
2013-01-24 05:20:00,52.0,50.6,30.04,East,80,0.0,0.0,95,0.00,,BKN110,0.33,VWS V14.01,2013-01-24 13:20:00,
2013-01-24 05:21:00,52.0,50.6,30.04,East,80,0.0,0.0,95,0.01,,,0.33,VWS V14.01,2013-01-24 13:21:00,
2013-01-24 05:25:00,52.2,50.8,30.04,East,80,0.0,0.0,95,0.00,,BKN110,0.33,VWS V14.01,2013-01-24 13:25:00,
2013-01-24 05:26:00,52.0,50.6,30.04,East,80,0.0,0.0,95,0.00,,,0.33,VWS V14.01,2013-01-24 13:26:00,
2013-01-24 05:30:00,52.2,50.8,30.04,East,80,0.0,0.0,95,0.00,,BKN110,0.33,VWS V14.01,2013-01-24 13:30:00,
2013-01-24 05:35:00,52.2,50.8,30.04,East,80,0.0,0.0,95,0.00,,BKN110,0.33,VWS V14.01,2013-01-24 13:35:00,
2013-01-24 05:36:00,52.2,50.8,30.04,East,80,0.0,0.0,95,0.00,,,0.33,VWS V14.01,2013-01-24 13:36:00,
2013-01-24 05:40:00,52.3,50.9,30.04,East,80,0.0,0.0,95,0.00,,BKN110,0.33,VWS V14.01,2013-01-24 13:40:00,
2013-01-24 05:45:00,52.2,50.8,30.04,East,80,0.0,0.0,95,0.00,,BKN110,0.33,VWS V14.01,2013-01-24 13:45:00,
2013-01-24 05:46:00,52.2,50.8,30.04,East,80,0.0,0.0,95,0.00,,,0.33,VWS V14.01,2013-01-24 13:46:00,
2013-01-24 05:50:00,52.2,51.1,30.04,East,80,0.0,0.0,96,0.00,,BKN110,0.33,VWS V14.01,2013-01-24 13:50:00,
2013-01-24 05:55:00,52.2,51.1,30.04,East,80,0.0,0.0,96,0.00,,BKN110,0.33,VWS V14.01,2013-01-24 13:55:00,
2013-01-24 05:56:00,52.2,50.8,30.04,East,80,0.0,0.0,95,0.00,,,0.33,VWS V14.01,2013-01-24 13:56:00,
2013-01-24 06:00:00,52.3,51.2,30.04,East,80,0.0,0.0,96,0.00,,BKN110,0.33,VWS V14.01,2013-01-24 14:00:00,
2013-01-24 06:01:00,52.2,51.1,30.04,East,80,0.0,0.0,96,0.00,,,0.33,VWS V14.01,2013-01-24 14:01:00,
2013-01-24 06:05:00,52.3,51.2,30.04,East,80,0.0,0.0,96,0.00,,BKN110,0.33,VWS V14.01,2013-01-24 14:05:00,
2013-01-24 06:10:00,52.3,51.2,30.04,East,80,0.0,0.0,96,0.00,,BKN110,0.33,VWS V14.01,2013-01-24 14:10:00,
2013-01-24 06:11:00,52.3,51.2,30.04,East,80,0.0,0.0,96,0.00,,,0.33,VWS V14.01,2013-01-24 14:11:00,
2013-01-24 06:15:00,52.5,51.4,30.04,East,80,0.0,0.0,96,0.00,,BKN110,0.33,VWS V14.01,2013-01-24 14:15:00,
2013-01-24 06:16:00,52.3,51.2,30.04,East,80,0.0,0.0,96,0.00,,,0.33,VWS V14.01,2013-01-24 14:16:00,
2013-01-24 06:20:00,52.5,51.4,30.04,East,80,0.0,0.0,96,0.00,,BKN110,0.33,VWS V14.01,2013-01-24 14:20:00,
2013-01-24 06:25:00,52.5,51.4,30.04,East,80,0.0,0.0,96,0.00,,BKN110,0.33,VWS V14.01,2013-01-24 14:25:00,
2013-01-24 06:26:00,52.5,51.4,30.04,East,80,0.0,0.0,96,0.00,,,0.33,VWS V14.01,2013-01-24 14:26:00,
2013-01-24 06:30:00,52.6,51.5,30.04,East,80,0.0,0.0,96,0.00,,BKN110,0.33,VWS V14.01,2013-01-24 14:30:00,
2013-01-24 06:31:00,52.5,51.4,30.04,East,80,0.0,0.0,96,0.00,,,0.33,VWS V14.01,2013-01-24 14:31:00,
2013-01-24 06:35:00,52.6,51.5,30.04,East,80,0.0,0.0,96,0.00,,BKN110,0.33,VWS V14.01,2013-01-24 14:35:00,
2013-01-24 06:36:00,52.5,51.4,30.04,East,80,0.0,0.0,96,0.00,,,0.33,VWS V14.01,2013-01-24 14:36:00,
2013-01-24 06:40:00,52.8,51.7,30.04,East,80,0.0,0.0,96,0.00,,BKN110,0.33,VWS V14.01,2013-01-24 14:40:00,
2013-01-24 06:41:00,52.6,51.5,30.04,East,80,0.0,0.0,96,0.00,,,0.33,VWS V14.01,2013-01-24 14:41:00,
2013-01-24 06:45:00,52.8,51.7,30.05,East,80,2.0,2.0,96,0.00,,BKN110,0.33,VWS V14.01,2013-01-24 14:45:00,
2013-01-24 06:46:00,52.6,51.5,30.04,East,80,0.0,0.0,96,0.00,,,0.33,VWS V14.01,2013-01-24 14:46:00,
2013-01-24 06:50:00,52.6,51.5,30.05,East,80,0.0,2.0,96,0.00,,BKN110,0.33,VWS V14.01,2013-01-24 14:50:00,
2013-01-24 06:51:00,52.8,51.7,30.04,East,80,0.0,0.0,96,0.00,,,0.33,VWS V14.01,2013-01-24 14:51:00,
2013-01-24 06:55:00,52.5,51.4,30.05,East,80,0.0,0.0,96,0.00,,,0.33,VWS V14.01,2013-01-24 14:55:00,
2013-01-24 07:00:00,52.5,51.4,30.06,East,80,0.0,0.0,96,0.00,,BKN110,0.33,VWS V14.01,2013-01-24 15:00:00,
2013-01-24 07:01:00,52.6,51.5,30.05,East,80,0.0,2.0,96,0.00,,,0.33,VWS V14.01,2013-01-24 15:01:00,
2013-01-24 07:05:00,52.6,51.5,30.06,East,80,0.0,0.0,96,0.00,,BKN110,0.33,VWS V14.01,2013-01-24 15:05:00,
2013-01-24 07:10:00,52.8,51.7,30.06,East,80,0.0,0.0,96,0.00,,BKN110,0.33,VWS V14.01,2013-01-24 15:10:00,
2013-01-24 07:11:00,52.5,51.4,30.06,East,80,0.0,0.0,96,0.00,,,0.33,VWS V14.01,2013-01-24 15:11:00,
2013-01-24 07:15:00,52.8,51.7,30.06,East,80,0.0,0.0,96,0.00,,BKN110,0.33,VWS V14.01,2013-01-24 15:15:00,
2013-01-24 07:16:00,52.6,51.5,30.06,East,80,0.0,0.0,96,0.00,,,0.33,VWS V14.01,2013-01-24 15:16:00,
2013-01-24 07:20:00,52.8,51.7,30.06,East,80,0.0,0.0,96,0.00,,BKN110,0.33,VWS V14.01,2013-01-24 15:20:00,
2013-01-24 07:21:00,52.8,51.7,30.06,East,80,0.0,0.0,96,0.00,,OVC030,0.33,VWS V14.01,2013-01-24 15:21:00,
2013-01-24 07:25:00,52.8,51.7,30.06,East,80,0.0,0.0,96,0.00,,OVC030,0.33,VWS V14.01,2013-01-24 15:25:00,
2013-01-24 07:26:00,52.8,51.7,30.06,East,80,0.0,0.0,96,0.00,,OVC030,0.33,VWS V14.01,2013-01-24 15:26:00,
2013-01-24 07:30:00,52.8,51.7,30.07,East,80,0.0,0.0,96,0.00,,OVC030,0.33,VWS V14.01,2013-01-24 15:30:00,
2013-01-24 07:35:00,52.8,51.7,30.07,East,80,0.0,0.0,96,0.00,,BKN110,0.33,VWS V14.01,2013-01-24 15:35:00,
2013-01-24 07:40:00,52.8,51.7,30.07,East,80,0.0,0.0,96,0.00,,BKN110,0.33,VWS V14.01,2013-01-24 15:40:00,
2013-01-24 07:45:00,52.9,51.8,30.07,East,80,0.0,0.0,96,0.00,,BKN110,0.33,VWS V14.01,2013-01-24 15:45:00,
2013-01-24 07:46:00,52.8,51.7,30.07,East,80,0.0,0.0,96,0.00,,OVC030,0.33,VWS V14.01,2013-01-24 15:46:00,
2013-01-24 07:50:00,52.9,51.8,30.07,East,80,0.0,0.0,96,0.00,,,0.33,VWS V14.01,2013-01-24 15:50:00,
2013-01-24 07:55:00,53.1,52.0,30.07,East,80,0.0,0.0,96,0.00,,,0.33,VWS V14.01,2013-01-24 15:55:00,
2013-01-24 07:56:00,52.9,51.8,30.07,East,80,0.0,0.0,96,0.00,,OVC030,0.33,VWS V14.01,2013-01-24 15:56:00,
2013-01-24 08:00:00,53.2,52.1,30.08,East,80,0.0,0.0,96,0.00,,BKN110,0.33,VWS V14.01,2013-01-24 16:00:00,
2013-01-24 08:05:00,53.2,52.1,30.08,East,80,0.0,0.0,96,0.00,,BKN110,0.33,VWS V14.01,2013-01-24 16:05:00,
2013-01-24 08:10:00,53.2,52.1,30.08,East,80,0.0,0.0,96,0.00,,,0.33,VWS V14.01,2013-01-24 16:10:00,
2013-01-24 08:11:00,53.2,52.1,30.08,East,80,0.0,0.0,96,0.00,,,0.33,VWS V14.01,2013-01-24 16:11:00,
2013-01-24 08:15:00,53.3,52.2,30.08,East,80,0.0,0.0,96,0.00,,,0.33,VWS V14.01,2013-01-24 16:15:00,
2013-01-24 08:16:00,53.2,52.1,30.08,East,80,0.0,0.0,96,0.00,,,0.33,VWS V14.01,2013-01-24 16:16:00,
2013-01-24 08:20:00,53.5,52.4,30.08,East,80,0.0,0.0,96,0.00,,BKN110,0.33,VWS V14.01,2013-01-24 16:20:00,
2013-01-24 08:25:00,53.6,52.5,30.08,East,80,0.0,0.0,96,0.00,,,0.33,VWS V14.01,2013-01-24 16:25:00,
2013-01-24 08:30:00,53.6,52.5,30.08,East,80,0.0,0.0,96,0.00,,,0.33,VWS V14.01,2013-01-24 16:30:00,
2013-01-24 08:31:00,53.5,52.4,30.08,East,80,0.0,0.0,96,0.00,,,0.33,VWS V14.01,2013-01-24 16:31:00,
2013-01-24 08:35:00,53.9,52.8,30.08,East,80,0.0,0.0,96,0.01,,BKN110,0.34,VWS V14.01,2013-01-24 16:35:00,
2013-01-24 08:40:00,54.2,53.1,30.08,East,80,0.0,0.0,96,0.01,,BKN110,0.34,VWS V14.01,2013-01-24 16:40:00,
2013-01-24 08:45:00,54.5,53.4,30.09,East,80,0.0,0.0,96,0.01,,BKN110,0.34,VWS V14.01,2013-01-24 16:45:00,
2013-01-24 08:46:00,53.9,52.8,30.08,East,80,0.0,0.0,96,0.01,,,0.34,VWS V14.01,2013-01-24 16:46:00,
2013-01-24 08:50:00,54.7,53.6,30.09,East,80,0.0,0.0,96,0.01,,BKN110,0.34,VWS V14.01,2013-01-24 16:50:00,
2013-01-24 08:51:00,54.2,53.1,30.08,East,80,0.0,0.0,96,0.01,,,0.34,VWS V14.01,2013-01-24 16:51:00,
2013-01-24 08:55:00,54.8,53.7,30.09,East,80,0.0,0.0,96,0.01,,BKN110,0.34,VWS V14.01,2013-01-24 16:55:00,
2013-01-24 08:56:00,54.5,53.4,30.09,East,80,0.0,0.0,96,0.01,,,0.34,VWS V14.01,2013-01-24 16:56:00,
2013-01-24 09:00:00,54.5,53.4,30.10,East,80,0.0,0.0,96,0.01,,BKN110,0.34,VWS V14.01,2013-01-24 17:00:00,
2013-01-24 09:01:00,54.7,53.6,30.09,East,80,0.0,0.0,96,0.01,,-RA,0.34,VWS V14.01,2013-01-24 17:01:00,
2013-01-24 09:05:00,54.5,53.4,30.10,East,80,0.0,0.0,96,0.01,,BKN110,0.34,VWS V14.01,2013-01-24 17:05:00,
2013-01-24 09:06:00,54.8,53.7,30.09,East,80,0.0,0.0,96,0.01,,-RA,0.34,VWS V14.01,2013-01-24 17:06:00,
2013-01-24 09:10:00,54.7,53.6,30.10,East,80,1.0,1.0,96,0.01,,BKN110,0.34,VWS V14.01,2013-01-24 17:10:00,
2013-01-24 09:11:00,54.5,53.4,30.10,East,80,0.0,0.0,96,0.01,,-RA,0.34,VWS V14.01,2013-01-24 17:11:00,
2013-01-24 09:15:00,54.7,53.6,30.11,SSE,150,1.0,3.0,96,0.01,,BKN110,0.34,VWS V14.01,2013-01-24 17:15:00,
2013-01-24 09:16:00,54.5,53.4,30.10,East,80,0.0,0.0,96,0.01,,-RA,0.34,VWS V14.01,2013-01-24 17:16:00,
2013-01-24 09:20:00,54.8,53.7,30.11,SSE,150,0.0,3.0,96,0.01,,BKN110,0.34,VWS V14.01,2013-01-24 17:20:00,
2013-01-24 09:21:00,54.7,53.6,30.10,East,80,1.0,1.0,96,0.01,,-RA,0.34,VWS V14.01,2013-01-24 17:21:00,
2013-01-24 09:25:00,55.0,53.9,30.11,SSE,150,0.0,1.0,96,0.01,,BKN110,0.34,VWS V14.01,2013-01-24 17:25:00,
2013-01-24 09:26:00,54.7,53.6,30.11,SSE,150,1.0,3.0,96,0.01,,-RA,0.34,VWS V14.01,2013-01-24 17:26:00,
2013-01-24 09:30:00,55.3,54.5,30.11,SSE,150,0.0,0.0,97,0.01,,BKN110,0.34,VWS V14.01,2013-01-24 17:30:00,
2013-01-24 09:31:00,54.8,53.7,30.11,SSE,150,0.0,3.0,96,0.01,,-RA,0.34,VWS V14.01,2013-01-24 17:31:00,
2013-01-24 09:35:00,55.4,54.3,30.11,SSE,150,0.0,0.0,96,0.01,,BKN110,0.34,VWS V14.01,2013-01-24 17:35:00,
2013-01-24 09:40:00,55.6,54.8,30.11,SSE,150,0.0,0.0,97,0.00,,BKN110,0.34,VWS V14.01,2013-01-24 17:40:00,
2013-01-24 09:41:00,55.3,54.5,30.11,SSE,150,0.0,0.0,97,0.01,,-RA,0.34,VWS V14.01,2013-01-24 17:41:00,
2013-01-24 09:45:00,55.9,54.8,30.12,SSE,150,0.0,0.0,96,0.00,,BKN110,0.34,VWS V14.01,2013-01-24 17:45:00,
2013-01-24 09:46:00,55.4,54.3,30.11,SSE,150,0.0,0.0,96,0.01,,-RA,0.34,VWS V14.01,2013-01-24 17:46:00,
2013-01-24 09:50:00,55.9,55.1,30.12,SSE,150,0.0,0.0,97,0.00,,BKN110,0.34,VWS V14.01,2013-01-24 17:50:00,
2013-01-24 09:55:00,56.0,54.9,30.12,SE,129,0.0,1.0,96,0.00,,BKN110,0.34,VWS V14.01,2013-01-24 17:55:00,
2013-01-24 09:56:00,55.9,54.8,30.12,SSE,150,0.0,0.0,96,0.00,,-RA,0.34,VWS V14.01,2013-01-24 17:56:00,
2013-01-24 10:00:00,56.0,54.9,30.12,SE,129,0.0,0.0,96,0.00,,BKN110,0.34,VWS V14.01,2013-01-24 18:00:00,
2013-01-24 10:01:00,55.9,55.1,30.12,SSE,150,0.0,0.0,97,0.00,,-RA,0.34,VWS V14.01,2013-01-24 18:01:00,
2013-01-24 10:05:00,56.2,55.1,30.12,SE,129,0.0,1.0,96,0.00,,BKN110,0.34,VWS V14.01,2013-01-24 18:05:00,
2013-01-24 10:06:00,56.0,54.9,30.12,SE,129,0.0,1.0,96,0.00,,-RA,0.34,VWS V14.01,2013-01-24 18:06:00,
2013-01-24 10:10:00,56.2,55.1,30.12,SE,129,1.0,1.0,96,0.01,,BKN110,0.35,VWS V14.01,2013-01-24 18:10:00,
2013-01-24 10:11:00,56.0,54.9,30.12,SE,129,0.0,0.0,96,0.00,,-RA,0.34,VWS V14.01,2013-01-24 18:11:00,
2013-01-24 10:15:00,56.3,55.5,30.12,SE,129,0.0,1.0,97,0.01,,BKN110,0.35,VWS V14.01,2013-01-24 18:15:00,
2013-01-24 10:16:00,56.2,55.1,30.12,SE,129,0.0,1.0,96,0.00,,-RA,0.34,VWS V14.01,2013-01-24 18:16:00,
2013-01-24 10:20:00,56.6,55.8,30.12,SE,129,0.0,0.0,97,0.02,,BKN110,0.36,VWS V14.01,2013-01-24 18:20:00,
2013-01-24 10:21:00,56.2,55.1,30.12,SE,129,1.0,1.0,96,0.01,,-RA,0.35,VWS V14.01,2013-01-24 18:21:00,
2013-01-24 10:25:00,56.9,56.1,30.12,SE,129,0.0,0.0,97,0.02,,BKN110,0.36,VWS V14.01,2013-01-24 18:25:00,
2013-01-24 10:26:00,56.3,55.5,30.12,SE,129,0.0,1.0,97,0.01,,-RA,0.35,VWS V14.01,2013-01-24 18:26:00,
2013-01-24 10:30:00,57.5,56.7,30.12,ENE,57,0.0,2.0,97,0.02,,BKN110,0.36,VWS V14.01,2013-01-24 18:30:00,
2013-01-24 10:35:00,58.0,57.2,30.12,ENE,57,0.0,1.0,97,0.02,,BKN110,0.36,VWS V14.01,2013-01-24 18:35:00,
2013-01-24 10:36:00,56.9,56.1,30.12,SE,129,0.0,0.0,97,0.02,,-RA,0.36,VWS V14.01,2013-01-24 18:36:00,
2013-01-24 10:40:00,58.1,57.3,30.12,ENE,77,2.0,2.0,97,0.02,,BKN110,0.36,VWS V14.01,2013-01-24 18:40:00,
2013-01-24 10:41:00,57.5,56.7,30.12,ENE,57,0.0,2.0,97,0.02,,-RA,0.36,VWS V14.01,2013-01-24 18:41:00,
2013-01-24 10:45:00,58.0,57.2,30.12,East,87,0.0,3.0,97,0.02,,BKN110,0.36,VWS V14.01,2013-01-24 18:45:00,
2013-01-24 10:50:00,58.0,56.9,30.12,East,87,0.0,1.0,96,0.02,,BKN110,0.36,VWS V14.01,2013-01-24 18:50:00,
2013-01-24 10:51:00,58.1,57.3,30.12,ENE,77,2.0,2.0,97,0.02,,-RA,0.36,VWS V14.01,2013-01-24 18:51:00,
2013-01-24 10:55:00,58.0,57.2,30.12,East,87,0.0,0.0,97,0.02,,BKN110,0.36,VWS V14.01,2013-01-24 18:55:00,
2013-01-24 10:56:00,58.0,57.2,30.12,East,87,0.0,3.0,97,0.02,,-RA,0.36,VWS V14.01,2013-01-24 18:56:00,
2013-01-24 11:00:00,57.8,56.7,30.11,East,87,0.0,2.0,96,0.02,,BKN110,0.36,VWS V14.01,2013-01-24 19:00:00,
2013-01-24 11:01:00,58.0,56.9,30.12,East,87,0.0,1.0,96,0.02,,-RA,0.36,VWS V14.01,2013-01-24 19:01:00,
2013-01-24 11:05:00,57.8,57.0,30.11,East,87,0.0,0.0,97,0.02,,BKN110,0.36,VWS V14.01,2013-01-24 19:05:00,
2013-01-24 11:10:00,57.8,57.0,30.11,East,87,0.0,1.0,97,0.02,,BKN110,0.36,VWS V14.01,2013-01-24 19:10:00,
2013-01-24 11:11:00,57.8,56.7,30.11,East,87,0.0,2.0,96,0.02,,-RA,0.36,VWS V14.01,2013-01-24 19:11:00,
2013-01-24 11:15:00,57.8,57.0,30.11,East,87,0.0,0.0,97,0.01,,BKN110,0.36,VWS V14.01,2013-01-24 19:15:00,
2013-01-24 11:16:00,57.8,57.0,30.11,East,87,0.0,0.0,97,0.02,,-RA,0.36,VWS V14.01,2013-01-24 19:16:00,
2013-01-24 11:20:00,58.1,57.3,30.11,East,87,0.0,0.0,97,0.01,,BKN110,0.36,VWS V14.01,2013-01-24 19:20:00,
2013-01-24 11:21:00,57.8,57.0,30.11,East,87,0.0,1.0,97,0.02,,-RA,0.36,VWS V14.01,2013-01-24 19:21:00,
2013-01-24 11:25:00,58.4,57.6,30.11,East,87,0.0,0.0,97,0.00,,BKN110,0.36,VWS V14.01,2013-01-24 19:25:00,
2013-01-24 11:30:00,58.4,57.6,30.11,East,87,0.0,0.0,97,0.00,,BKN110,0.36,VWS V14.01,2013-01-24 19:30:00,
2013-01-24 11:31:00,58.1,57.3,30.11,East,87,0.0,0.0,97,0.01,,-RA,0.36,VWS V14.01,2013-01-24 19:31:00,
2013-01-24 11:35:00,58.4,57.6,30.11,East,87,0.0,0.0,97,0.00,,BKN110,0.36,VWS V14.01,2013-01-24 19:35:00,
2013-01-24 11:36:00,58.4,57.6,30.11,East,87,0.0,0.0,97,0.00,,-RA,0.36,VWS V14.01,2013-01-24 19:36:00,
2013-01-24 11:40:00,58.6,57.8,30.11,East,87,0.0,0.0,97,0.00,,BKN110,0.36,VWS V14.01,2013-01-24 19:40:00,
2013-01-24 11:41:00,58.4,57.6,30.11,East,87,0.0,0.0,97,0.00,,-RA,0.36,VWS V14.01,2013-01-24 19:41:00,
2013-01-24 11:45:00,58.9,58.0,30.10,East,87,0.0,0.0,97,0.00,,BKN110,0.36,VWS V14.01,2013-01-24 19:45:00,
2013-01-24 11:46:00,58.4,57.6,30.11,East,87,0.0,0.0,97,0.00,,-RA,0.36,VWS V14.01,2013-01-24 19:46:00,
2013-01-24 11:50:00,59.0,58.2,30.10,East,87,0.0,0.0,97,0.00,,BKN110,0.36,VWS V14.01,2013-01-24 19:50:00,
2013-01-24 11:51:00,58.6,57.8,30.11,East,87,0.0,0.0,97,0.00,,-RA,0.36,VWS V14.01,2013-01-24 19:51:00,
2013-01-24 11:55:00,59.0,58.2,30.10,East,87,0.0,0.0,97,0.00,,BKN110,0.36,VWS V14.01,2013-01-24 19:55:00,
2013-01-24 12:00:00,59.0,57.9,30.09,East,87,0.0,0.0,96,0.00,,BKN110,0.36,VWS V14.01,2013-01-24 20:00:00,
2013-01-24 12:01:00,59.0,58.2,30.10,East,87,0.0,0.0,97,0.00,,BKN041,0.36,VWS V14.01,2013-01-24 20:01:00,
2013-01-24 12:05:00,59.0,58.2,30.09,East,87,0.0,0.0,97,0.00,,BKN110,0.36,VWS V14.01,2013-01-24 20:05:00,
2013-01-24 12:10:00,59.3,58.5,30.09,East,87,0.0,0.0,97,0.00,,BKN110,0.36,VWS V14.01,2013-01-24 20:10:00,
2013-01-24 12:11:00,59.0,57.9,30.09,East,87,0.0,0.0,96,0.00,,OVC032,0.36,VWS V14.01,2013-01-24 20:11:00,
2013-01-24 12:15:00,59.3,58.5,30.09,East,87,0.0,0.0,97,0.00,,BKN110,0.36,VWS V14.01,2013-01-24 20:15:00,
2013-01-24 12:16:00,59.0,58.2,30.09,East,87,0.0,0.0,97,0.00,,OVC032,0.36,VWS V14.01,2013-01-24 20:16:00,
2013-01-24 12:20:00,59.6,58.8,30.09,East,87,0.0,0.0,97,0.00,,BKN110,0.36,VWS V14.01,2013-01-24 20:20:00,
2013-01-24 12:25:00,59.5,58.4,30.09,East,87,0.0,0.0,96,0.00,,BKN110,0.36,VWS V14.01,2013-01-24 20:25:00,
2013-01-24 12:26:00,59.3,58.5,30.09,East,87,0.0,0.0,97,0.00,,OVC032,0.36,VWS V14.01,2013-01-24 20:26:00,
2013-01-24 12:30:00,59.5,58.4,30.08,East,87,0.0,0.0,96,0.00,,BKN110,0.36,VWS V14.01,2013-01-24 20:30:00,
2013-01-24 12:35:00,59.6,58.8,30.08,East,87,0.0,1.0,97,0.00,,BKN110,0.36,VWS V14.01,2013-01-24 20:35:00,
2013-01-24 12:36:00,59.5,58.4,30.09,East,87,0.0,0.0,96,0.00,,OVC032,0.36,VWS V14.01,2013-01-24 20:36:00,
2013-01-24 12:40:00,59.9,59.0,30.08,East,87,0.0,0.0,97,0.00,,BKN110,0.36,VWS V14.01,2013-01-24 20:40:00,
2013-01-24 12:41:00,59.5,58.4,30.08,East,87,0.0,0.0,96,0.00,,OVC032,0.36,VWS V14.01,2013-01-24 20:41:00,
2013-01-24 12:45:00,59.8,58.7,30.08,East,87,0.0,0.0,96,0.00,,BKN110,0.36,VWS V14.01,2013-01-24 20:45:00,
2013-01-24 12:46:00,59.6,58.8,30.08,East,87,0.0,1.0,97,0.00,,OVC032,0.36,VWS V14.01,2013-01-24 20:46:00,
2013-01-24 12:50:00,59.9,59.0,30.08,East,87,0.0,0.0,97,0.00,,BKN110,0.36,VWS V14.01,2013-01-24 20:50:00,
2013-01-24 12:55:00,60.2,59.3,30.08,East,87,0.0,0.0,97,0.00,,BKN110,0.36,VWS V14.01,2013-01-24 20:55:00,
2013-01-24 12:56:00,59.8,58.7,30.08,East,87,0.0,0.0,96,0.00,,OVC032,0.36,VWS V14.01,2013-01-24 20:56:00,
2013-01-24 13:00:00,60.5,59.7,30.08,East,87,0.0,0.0,97,0.00,,BKN110,0.36,VWS V14.01,2013-01-24 21:00:00,
2013-01-24 13:05:00,60.7,59.8,30.08,East,87,0.0,1.0,97,0.00,,BKN110,0.36,VWS V14.01,2013-01-24 21:05:00,
2013-01-24 13:06:00,60.2,59.3,30.08,East,87,0.0,0.0,97,0.00,,OVC032,0.36,VWS V14.01,2013-01-24 21:06:00,
2013-01-24 13:10:00,61.2,60.3,30.08,East,87,0.0,0.0,97,0.00,,BKN110,0.36,VWS V14.01,2013-01-24 21:10:00,
2013-01-24 13:11:00,60.5,59.7,30.08,East,87,0.0,0.0,97,0.00,,OVC032,0.36,VWS V14.01,2013-01-24 21:11:00,
2013-01-24 13:15:00,61.6,60.7,30.07,ENE,61,0.0,1.0,97,0.00,,BKN110,0.36,VWS V14.01,2013-01-24 21:15:00,
2013-01-24 13:16:00,60.7,59.8,30.08,East,87,0.0,1.0,97,0.00,,OVC032,0.36,VWS V14.01,2013-01-24 21:16:00,
2013-01-24 13:20:00,62.3,61.4,30.07,ENE,61,0.0,0.0,97,0.00,,BKN110,0.36,VWS V14.01,2013-01-24 21:20:00,
2013-01-24 13:25:00,62.4,61.2,30.07,SE,134,1.0,2.0,96,0.00,,BKN110,0.36,VWS V14.01,2013-01-24 21:25:00,
2013-01-24 13:26:00,61.6,60.7,30.07,ENE,61,0.0,1.0,97,0.00,,OVC032,0.36,VWS V14.01,2013-01-24 21:26:00,
2013-01-24 13:30:00,62.3,61.2,30.07,SSE,150,2.0,3.0,96,0.00,,BKN110,0.36,VWS V14.01,2013-01-24 21:30:00,
2013-01-24 13:35:00,62.3,61.2,30.07,ESE,117,0.0,3.0,96,0.00,,BKN110,0.36,VWS V14.01,2013-01-24 21:35:00,
2013-01-24 13:36:00,62.4,61.2,30.07,SE,134,1.0,2.0,96,0.00,,OVC032,0.36,VWS V14.01,2013-01-24 21:36:00,
2013-01-24 13:40:00,62.4,61.2,30.07,SSE,155,0.0,3.0,96,0.00,,BKN110,0.36,VWS V14.01,2013-01-24 21:40:00,
2013-01-24 13:41:00,62.3,61.2,30.07,SSE,150,2.0,3.0,96,0.00,,OVC032,0.36,VWS V14.01,2013-01-24 21:41:00,
2013-01-24 13:45:00,62.6,61.5,30.07,SSE,161,1.0,4.0,96,0.00,,BKN110,0.36,VWS V14.01,2013-01-24 21:45:00,
2013-01-24 13:46:00,62.3,61.2,30.07,ESE,117,0.0,3.0,96,0.00,,OVC032,0.36,VWS V14.01,2013-01-24 21:46:00,
2013-01-24 13:50:00,62.7,61.5,30.07,ESE,103,0.0,1.0,96,0.00,,BKN110,0.36,VWS V14.01,2013-01-24 21:50:00,
2013-01-24 13:51:00,62.4,61.2,30.07,SSE,155,0.0,3.0,96,0.00,,OVC032,0.36,VWS V14.01,2013-01-24 21:51:00,
2013-01-24 13:55:00,62.7,61.5,30.07,ESE,104,0.0,3.0,96,0.00,,BKN110,0.36,VWS V14.01,2013-01-24 21:55:00,
2013-01-24 14:00:00,63.1,61.7,30.07,ESE,104,0.0,0.0,95,0.00,,BKN110,0.36,VWS V14.01,2013-01-24 22:00:00,
2013-01-24 14:01:00,62.7,61.5,30.07,ESE,103,0.0,1.0,96,0.00,,OVC050,0.36,VWS V14.01,2013-01-24 22:01:00,
2013-01-24 14:05:00,63.1,61.7,30.07,ESE,104,0.0,1.0,95,0.00,,BKN110,0.36,VWS V14.01,2013-01-24 22:05:00,
2013-01-24 14:06:00,62.7,61.5,30.07,ESE,104,0.0,3.0,96,0.00,,OVC050,0.36,VWS V14.01,2013-01-24 22:06:00,
2013-01-24 14:10:00,63.2,61.8,30.07,ESE,104,0.0,0.0,95,0.00,,BKN110,0.36,VWS V14.01,2013-01-24 22:10:00,
2013-01-24 14:15:00,63.4,62.0,30.07,ESE,104,0.0,0.0,95,0.00,,BKN110,0.36,VWS V14.01,2013-01-24 22:15:00,
2013-01-24 14:16:00,63.1,61.7,30.07,ESE,104,0.0,1.0,95,0.00,,OVC050,0.36,VWS V14.01,2013-01-24 22:16:00,
2013-01-24 14:20:00,63.4,61.7,30.07,East,100,0.0,1.0,94,0.00,,BKN110,0.36,VWS V14.01,2013-01-24 22:20:00,
2013-01-24 14:25:00,63.4,61.7,30.07,East,100,0.0,0.0,94,0.00,,BKN110,0.36,VWS V14.01,2013-01-24 22:25:00,
2013-01-24 14:26:00,63.4,62.0,30.07,ESE,104,0.0,0.0,95,0.00,,OVC050,0.36,VWS V14.01,2013-01-24 22:26:00,
2013-01-24 14:30:00,63.4,61.3,30.07,SSE,147,0.0,2.0,93,0.00,,BKN110,0.36,VWS V14.01,2013-01-24 22:30:00,
2013-01-24 14:31:00,63.4,61.7,30.07,East,100,0.0,1.0,94,0.00,,OVC050,0.36,VWS V14.01,2013-01-24 22:31:00,
2013-01-24 14:35:00,63.5,61.4,30.07,SSE,147,0.0,1.0,93,0.00,,BKN110,0.36,VWS V14.01,2013-01-24 22:35:00,
2013-01-24 14:40:00,63.5,61.1,30.07,SSE,147,0.0,1.0,92,0.00,,BKN110,0.36,VWS V14.01,2013-01-24 22:40:00,
2013-01-24 14:41:00,63.4,61.3,30.07,SSE,147,0.0,2.0,93,0.00,,OVC050,0.36,VWS V14.01,2013-01-24 22:41:00,
2013-01-24 14:45:00,63.7,61.3,30.07,SSE,147,0.0,0.0,92,0.00,,BKN110,0.36,VWS V14.01,2013-01-24 22:45:00,
2013-01-24 14:46:00,63.5,61.4,30.07,SSE,147,0.0,1.0,93,0.00,,OVC050,0.36,VWS V14.01,2013-01-24 22:46:00,
2013-01-24 14:50:00,63.7,61.0,30.07,SSE,147,0.0,1.0,91,0.00,,BKN110,0.36,VWS V14.01,2013-01-24 22:50:00,
2013-01-24 14:51:00,63.5,61.1,30.07,SSE,147,0.0,1.0,92,0.00,,OVC050,0.36,VWS V14.01,2013-01-24 22:51:00,
2013-01-24 14:55:00,63.9,61.2,30.07,SSE,147,0.0,1.0,91,0.00,,BKN110,0.36,VWS V14.01,2013-01-24 22:55:00,
2013-01-24 14:56:00,63.7,61.3,30.07,SSE,147,0.0,0.0,92,0.00,,OVC050,0.36,VWS V14.01,2013-01-24 22:56:00,
2013-01-24 15:00:00,63.9,60.9,30.07,SSE,147,0.0,3.0,90,0.00,,BKN110,0.36,VWS V14.01,2013-01-24 23:00:00,
2013-01-24 15:01:00,63.7,61.0,30.07,SSE,147,0.0,1.0,91,0.00,,OVC060,0.36,VWS V14.01,2013-01-24 23:01:00,
2013-01-24 15:05:00,63.9,60.6,30.07,SSE,147,0.0,0.0,89,0.00,,BKN110,0.36,VWS V14.01,2013-01-24 23:05:00,
2013-01-24 15:06:00,63.9,61.2,30.07,SSE,147,0.0,1.0,91,0.00,,OVC060,0.36,VWS V14.01,2013-01-24 23:06:00,
2013-01-24 15:10:00,63.9,60.6,30.07,SSE,147,0.0,2.0,89,0.00,,BKN110,0.36,VWS V14.01,2013-01-24 23:10:00,
2013-01-24 15:11:00,63.9,60.9,30.07,SSE,147,0.0,3.0,90,0.00,,OVC060,0.36,VWS V14.01,2013-01-24 23:11:00,
2013-01-24 15:15:00,64.0,60.7,30.07,SSE,147,0.0,0.0,89,0.00,,BKN110,0.36,VWS V14.01,2013-01-24 23:15:00,
2013-01-24 15:16:00,63.9,60.6,30.07,SSE,147,0.0,0.0,89,0.00,,OVC060,0.36,VWS V14.01,2013-01-24 23:16:00,
2013-01-24 15:20:00,63.9,60.3,30.07,SSE,147,0.0,2.0,88,0.00,,BKN110,0.36,VWS V14.01,2013-01-24 23:20:00,
2013-01-24 15:25:00,63.9,60.3,30.07,SSE,147,0.0,2.0,88,0.00,,BKN110,0.36,VWS V14.01,2013-01-24 23:25:00,
2013-01-24 15:26:00,64.0,60.7,30.07,SSE,147,0.0,0.0,89,0.00,,OVC060,0.36,VWS V14.01,2013-01-24 23:26:00,
2013-01-24 15:30:00,64.0,60.1,30.07,SSE,147,0.0,1.0,87,0.00,,BKN110,0.36,VWS V14.01,2013-01-24 23:30:00,
2013-01-24 15:31:00,63.9,60.3,30.07,SSE,147,0.0,2.0,88,0.00,,OVC060,0.36,VWS V14.01,2013-01-24 23:31:00,
2013-01-24 15:35:00,64.2,59.9,30.07,NW,304,0.0,0.0,86,0.00,,BKN110,0.36,VWS V14.01,2013-01-24 23:35:00,
2013-01-24 15:40:00,64.2,59.9,30.07,NW,304,0.0,0.0,86,0.00,,BKN110,0.36,VWS V14.01,2013-01-24 23:40:00,
2013-01-24 15:41:00,64.0,60.1,30.07,SSE,147,0.0,1.0,87,0.00,,OVC060,0.36,VWS V14.01,2013-01-24 23:41:00,
2013-01-24 15:45:00,64.2,59.9,30.07,NW,304,0.0,0.0,86,0.00,,BKN110,0.36,VWS V14.01,2013-01-24 23:45:00,
2013-01-24 15:46:00,64.2,59.9,30.07,NW,304,0.0,0.0,86,0.00,,OVC060,0.36,VWS V14.01,2013-01-24 23:46:00,
2013-01-24 15:50:00,64.2,59.9,30.07,NW,304,0.0,0.0,86,0.00,,BKN110,0.36,VWS V14.01,2013-01-24 23:50:00,
2013-01-24 15:55:00,64.3,59.7,30.07,NW,304,0.0,1.0,85,0.00,,BKN110,0.36,VWS V14.01,2013-01-24 23:55:00,
2013-01-24 15:56:00,64.2,59.9,30.07,NW,304,0.0,0.0,86,0.00,,OVC060,0.36,VWS V14.01,2013-01-24 23:56:00,
2013-01-24 16:00:00,64.3,59.7,30.07,NW,304,0.0,0.0,85,0.00,,BKN110,0.36,VWS V14.01,2013-01-25 00:00:00,
2013-01-24 16:05:00,64.2,59.3,30.07,ESE,118,0.0,4.0,84,0.00,,BKN110,0.36,VWS V14.01,2013-01-25 00:05:00,
2013-01-24 16:06:00,64.3,59.7,30.07,NW,304,0.0,1.0,85,0.00,,OVC060,0.36,VWS V14.01,2013-01-25 00:06:00,
2013-01-24 16:10:00,63.7,58.5,30.07,SSE,159,0.0,4.0,83,0.00,,BKN110,0.36,VWS V14.01,2013-01-25 00:10:00,
2013-01-24 16:15:00,63.5,57.9,30.06,SE,134,0.0,2.0,82,0.00,,BKN110,0.36,VWS V14.01,2013-01-25 00:15:00,
2013-01-24 16:16:00,64.2,59.3,30.07,ESE,118,0.0,4.0,84,0.00,,OVC060,0.36,VWS V14.01,2013-01-25 00:16:00,
2013-01-24 16:20:00,63.5,57.6,30.06,SE,134,0.0,0.0,81,0.00,,BKN110,0.36,VWS V14.01,2013-01-25 00:20:00,
2013-01-24 16:21:00,63.7,58.5,30.07,SSE,159,0.0,4.0,83,0.00,,OVC060,0.36,VWS V14.01,2013-01-25 00:21:00,
2013-01-24 16:25:00,63.4,57.5,30.06,SE,134,0.0,0.0,81,0.00,,BKN110,0.36,VWS V14.01,2013-01-25 00:25:00,
2013-01-24 16:30:00,63.4,57.1,30.06,SE,132,2.0,2.0,80,0.00,,BKN110,0.36,VWS V14.01,2013-01-25 00:30:00,
2013-01-24 16:31:00,63.5,57.6,30.06,SE,134,0.0,0.0,81,0.00,,OVC060,0.36,VWS V14.01,2013-01-25 00:31:00,
2013-01-24 16:35:00,63.2,56.9,30.06,SSE,150,2.0,3.0,80,0.00,,BKN110,0.36,VWS V14.01,2013-01-25 00:35:00,
2013-01-24 16:36:00,63.4,57.5,30.06,SE,134,0.0,0.0,81,0.00,,OVC060,0.36,VWS V14.01,2013-01-25 00:36:00,
2013-01-24 16:40:00,63.1,57.2,30.06,SE,136,0.0,3.0,81,0.00,,BKN110,0.36,VWS V14.01,2013-01-25 00:40:00,
2013-01-24 16:41:00,63.4,57.1,30.06,SE,132,2.0,2.0,80,0.00,,OVC060,0.36,VWS V14.01,2013-01-25 00:41:00,
2013-01-24 16:45:00,62.9,57.0,30.07,SSE,147,0.0,3.0,81,0.00,,BKN110,0.36,VWS V14.01,2013-01-25 00:45:00,
2013-01-24 16:46:00,63.2,56.9,30.06,SSE,150,2.0,3.0,80,0.00,,OVC060,0.36,VWS V14.01,2013-01-25 00:46:00,
2013-01-24 16:50:00,62.7,56.8,30.07,SSE,147,0.0,0.0,81,0.00,,BKN110,0.36,VWS V14.01,2013-01-25 00:50:00,
2013-01-24 16:51:00,63.1,57.2,30.06,SE,136,0.0,3.0,81,0.00,,OVC060,0.36,VWS V14.01,2013-01-25 00:51:00,
2013-01-24 16:55:00,62.6,56.7,30.07,SSE,157,2.0,2.0,81,0.00,,BKN110,0.36,VWS V14.01,2013-01-25 00:55:00,
2013-01-24 16:56:00,62.9,57.0,30.07,SSE,147,0.0,3.0,81,0.00,,OVC060,0.36,VWS V14.01,2013-01-25 00:56:00,
2013-01-24 17:00:00,62.4,56.5,30.07,SSE,157,0.0,2.0,81,0.00,,BKN110,0.36,VWS V14.01,2013-01-25 01:00:00,
2013-01-24 17:01:00,62.7,56.8,30.07,SSE,147,0.0,0.0,81,0.00,,BKN060,0.36,VWS V14.01,2013-01-25 01:01:00,
2013-01-24 17:05:00,62.3,56.4,30.07,SSE,157,0.0,1.0,81,0.00,,BKN110,0.36,VWS V14.01,2013-01-25 01:05:00,
2013-01-24 17:10:00,62.3,56.4,30.07,SSE,157,0.0,1.0,81,0.00,,BKN110,0.36,VWS V14.01,2013-01-25 01:10:00,
2013-01-24 17:11:00,62.4,56.5,30.07,SSE,157,0.0,2.0,81,0.00,,BKN060,0.36,VWS V14.01,2013-01-25 01:11:00,
2013-01-24 17:15:00,62.1,56.5,30.08,SSE,157,0.0,0.0,82,0.00,,BKN110,0.36,VWS V14.01,2013-01-25 01:15:00,
2013-01-24 17:16:00,62.3,56.4,30.07,SSE,157,0.0,1.0,81,0.00,,BKN060,0.36,VWS V14.01,2013-01-25 01:16:00,
2013-01-24 17:20:00,62.1,56.5,30.08,SSE,157,0.0,0.0,82,0.00,,BKN110,0.36,VWS V14.01,2013-01-25 01:20:00,
2013-01-24 17:25:00,62.0,56.5,30.08,SSE,157,0.0,0.0,82,0.00,,BKN110,0.36,VWS V14.01,2013-01-25 01:25:00,
2013-01-24 17:26:00,62.1,56.5,30.08,SSE,157,0.0,0.0,82,0.00,,BKN060,0.36,VWS V14.01,2013-01-25 01:26:00,
2013-01-24 17:30:00,61.8,56.2,30.09,North,0,0.0,0.0,82,0.00,,BKN110,0.36,VWS V14.01,2013-01-25 01:30:00,
2013-01-24 17:31:00,62.1,56.5,30.08,SSE,157,0.0,0.0,82,0.00,,BKN060,0.36,VWS V14.01,2013-01-25 01:31:00,
2013-01-24 17:35:00,61.8,56.2,30.09,West,270,0.0,3.0,82,0.00,,BKN110,0.36,VWS V14.01,2013-01-25 01:35:00,
2013-01-24 17:40:00,61.8,56.2,30.09,West,270,0.0,1.0,82,0.00,,BKN110,0.36,VWS V14.01,2013-01-25 01:40:00,
2013-01-24 17:45:00,61.6,56.1,30.09,West,270,0.0,1.0,82,0.00,,BKN110,0.36,VWS V14.01,2013-01-25 01:45:00,
2013-01-24 17:50:00,61.6,56.1,30.09,West,270,0.0,1.0,82,0.00,,BKN110,0.36,VWS V14.01,2013-01-25 01:50:00,
2013-01-24 17:55:00,61.6,56.1,30.09,West,270,0.0,0.0,82,0.00,,BKN110,0.36,VWS V14.01,2013-01-25 01:55:00,
2013-01-24 18:00:00,61.5,56.0,30.10,West,270,0.0,0.0,82,0.00,,BKN110,0.36,VWS V14.01,2013-01-25 02:00:00,
2013-01-24 18:05:00,61.3,55.8,30.10,West,270,0.0,1.0,82,0.00,,BKN110,0.36,VWS V14.01,2013-01-25 02:05:00,
2013-01-24 18:10:00,61.0,55.8,30.10,NW,315,0.0,3.0,83,0.00,,BKN110,0.36,VWS V14.01,2013-01-25 02:10:00,
2013-01-24 18:15:00,60.9,56.0,30.10,NW,315,0.0,3.0,84,0.00,,BKN110,0.36,VWS V14.01,2013-01-25 02:15:00,
2013-01-24 18:20:00,60.5,56.3,30.10,WNW,292,1.0,4.0,86,0.00,,BKN110,0.36,VWS V14.01,2013-01-25 02:20:00,
2013-01-24 18:25:00,60.2,56.0,30.10,West,270,1.0,3.0,86,0.00,,BKN110,0.36,VWS V14.01,2013-01-25 02:25:00,
2013-01-24 18:30:00,59.9,56.0,30.11,West,270,0.0,1.0,87,0.00,,BKN110,0.36,VWS V14.01,2013-01-25 02:30:00,
2013-01-24 18:35:00,59.8,56.2,30.11,West,270,0.0,1.0,88,0.00,,BKN110,0.36,VWS V14.01,2013-01-25 02:35:00,
2013-01-24 18:40:00,59.5,56.0,30.11,West,270,0.0,1.0,88,0.00,,BKN110,0.36,VWS V14.01,2013-01-25 02:40:00,
2013-01-24 18:45:00,59.2,56.0,30.11,West,270,0.0,1.0,89,0.00,,BKN110,0.36,VWS V14.01,2013-01-25 02:45:00,
2013-01-24 18:50:00,58.9,55.7,30.11,West,270,0.0,1.0,89,0.00,,BKN110,0.36,VWS V14.01,2013-01-25 02:50:00,
2013-01-24 18:55:00,58.7,55.5,30.11,West,270,1.0,4.0,89,0.00,,BKN110,0.36,VWS V14.01,2013-01-25 02:55:00,
2013-01-24 19:00:00,58.6,55.7,30.11,NW,315,2.0,5.0,90,0.00,,BKN110,0.36,VWS V14.01,2013-01-25 03:00:00,
2013-01-24 19:05:00,58.4,55.5,30.11,West,270,2.0,5.0,90,0.00,,BKN110,0.36,VWS V14.01,2013-01-25 03:05:00,
2013-01-24 19:10:00,58.3,55.7,30.11,West,270,2.0,6.0,91,0.00,,BKN110,0.36,VWS V14.01,2013-01-25 03:10:00,
2013-01-24 19:15:00,58.1,55.5,30.11,West,270,1.0,5.0,91,0.00,,BKN110,0.36,VWS V14.01,2013-01-25 03:15:00,
2013-01-24 19:20:00,58.0,55.4,30.11,West,270,0.0,1.0,91,0.00,,BKN110,0.36,VWS V14.01,2013-01-25 03:20:00,
2013-01-24 19:25:00,57.6,55.3,30.11,West,270,1.0,4.0,92,0.00,,BKN110,0.36,VWS V14.01,2013-01-25 03:25:00,
2013-01-24 19:30:00,57.6,55.3,30.11,West,270,2.0,4.0,92,0.00,,BKN110,0.36,VWS V14.01,2013-01-25 03:30:00,
2013-01-24 19:35:00,57.6,55.3,30.11,WNW,292,1.0,3.0,92,0.00,,BKN110,0.36,VWS V14.01,2013-01-25 03:35:00,
2013-01-24 19:40:00,57.5,55.2,30.11,West,270,1.0,3.0,92,0.00,,BKN110,0.36,VWS V14.01,2013-01-25 03:40:00,
2013-01-24 19:45:00,57.3,55.0,30.11,West,270,1.0,4.0,92,0.00,,BKN110,0.36,VWS V14.01,2013-01-25 03:45:00,
2013-01-24 19:50:00,57.3,55.0,30.11,West,270,2.0,6.0,92,0.00,,BKN110,0.36,VWS V14.01,2013-01-25 03:50:00,
2013-01-24 19:55:00,57.2,54.9,30.11,NW,315,0.0,1.0,92,0.00,,BKN110,0.36,VWS V14.01,2013-01-25 03:55:00,
2013-01-24 20:00:00,57.0,55.0,30.12,NW,315,0.0,3.0,93,0.00,,BKN110,0.36,VWS V14.01,2013-01-25 04:00:00,
2013-01-24 20:05:00,56.9,54.9,30.12,West,270,1.0,4.0,93,0.00,,BKN110,0.36,VWS V14.01,2013-01-25 04:05:00,
2013-01-24 20:10:00,56.7,54.7,30.12,West,270,1.0,4.0,93,0.00,,BKN110,0.36,VWS V14.01,2013-01-25 04:10:00,
2013-01-24 20:15:00,56.7,54.7,30.13,West,270,0.0,3.0,93,0.00,,BKN110,0.36,VWS V14.01,2013-01-25 04:15:00,
2013-01-24 20:20:00,56.6,54.6,30.13,West,270,0.0,0.0,93,0.00,,BKN110,0.36,VWS V14.01,2013-01-25 04:20:00,
2013-01-24 20:25:00,56.7,55.0,30.13,West,270,0.0,0.0,94,0.00,,BKN110,0.36,VWS V14.01,2013-01-25 04:25:00,
2013-01-24 20:30:00,56.7,55.0,30.14,West,270,0.0,1.0,94,0.00,,BKN110,0.36,VWS V14.01,2013-01-25 04:30:00,
2013-01-24 20:35:00,56.7,55.0,30.14,West,270,0.0,1.0,94,0.00,,BKN110,0.36,VWS V14.01,2013-01-25 04:35:00,
2013-01-24 20:40:00,56.7,55.0,30.14,West,270,0.0,1.0,94,0.00,,BKN110,0.36,VWS V14.01,2013-01-25 04:40:00,
2013-01-24 20:45:00,56.9,55.2,30.14,West,270,0.0,1.0,94,0.00,,BKN110,0.36,VWS V14.01,2013-01-25 04:45:00,
2013-01-24 20:50:00,57.0,55.3,30.14,West,270,0.0,1.0,94,0.00,,BKN110,0.36,VWS V14.01,2013-01-25 04:50:00,
2013-01-24 20:55:00,57.0,55.3,30.14,NW,315,1.0,3.0,94,0.00,,BKN110,0.36,VWS V14.01,2013-01-25 04:55:00,
2013-01-24 21:00:00,56.9,55.2,30.14,NW,315,1.0,5.0,94,0.00,,BKN110,0.36,VWS V14.01,2013-01-25 05:00:00,
2013-01-24 21:05:00,56.9,55.2,30.14,WNW,292,2.0,5.0,94,0.00,,BKN110,0.36,VWS V14.01,2013-01-25 05:05:00,
2013-01-24 21:10:00,56.9,55.2,30.14,WNW,292,3.0,5.0,94,0.00,,BKN110,0.36,VWS V14.01,2013-01-25 05:10:00,
2013-01-24 21:15:00,56.9,55.2,30.14,WNW,292,2.0,5.0,94,0.00,,BKN110,0.36,VWS V14.01,2013-01-25 05:15:00,
2013-01-24 21:20:00,56.9,55.2,30.14,WNW,292,2.0,6.0,94,0.00,,BKN110,0.36,VWS V14.01,2013-01-25 05:20:00,
2013-01-24 21:25:00,56.7,55.0,30.14,WNW,292,1.0,3.0,94,0.00,,BKN110,0.36,VWS V14.01,2013-01-25 05:25:00,
2013-01-24 21:30:00,56.7,55.0,30.14,WNW,292,2.0,7.0,94,0.00,,BKN110,0.36,VWS V14.01,2013-01-25 05:30:00,
2013-01-24 21:35:00,56.7,55.0,30.14,WNW,292,2.0,4.0,94,0.00,,BKN110,0.36,VWS V14.01,2013-01-25 05:35:00,
2013-01-24 21:40:00,56.7,55.0,30.14,NW,315,2.0,6.0,94,0.00,,BKN110,0.36,VWS V14.01,2013-01-25 05:40:00,
2013-01-24 21:45:00,56.7,55.3,30.14,WNW,292,3.0,7.0,95,0.00,,BKN110,0.36,VWS V14.01,2013-01-25 05:45:00,
2013-01-24 21:50:00,56.9,55.5,30.14,WNW,292,3.0,7.0,95,0.00,,BKN110,0.36,VWS V14.01,2013-01-25 05:50:00,
2013-01-24 21:55:00,56.9,55.5,30.14,WNW,292,2.0,5.0,95,0.00,,BKN110,0.36,VWS V14.01,2013-01-25 05:55:00,
2013-01-24 22:00:00,56.9,55.5,30.14,WNW,292,2.0,6.0,95,0.00,,BKN110,0.36,VWS V14.01,2013-01-25 06:00:00,
2013-01-24 22:05:00,56.9,55.5,30.14,NW,315,3.0,7.0,95,0.00,,BKN110,0.36,VWS V14.01,2013-01-25 06:05:00,
2013-01-24 22:10:00,57.0,55.6,30.14,WNW,292,2.0,4.0,95,0.00,,BKN110,0.36,VWS V14.01,2013-01-25 06:10:00,
2013-01-24 22:15:00,57.0,55.6,30.14,NW,315,2.0,4.0,95,0.00,,BKN110,0.36,VWS V14.01,2013-01-25 06:15:00,
2013-01-24 22:20:00,57.0,55.6,30.14,WNW,292,2.0,5.0,95,0.00,,BKN110,0.36,VWS V14.01,2013-01-25 06:20:00,
2013-01-24 22:25:00,56.9,55.5,30.14,WNW,292,0.0,3.0,95,0.00,,BKN110,0.36,VWS V14.01,2013-01-25 06:25:00,
2013-01-24 22:30:00,56.9,55.5,30.14,WNW,292,2.0,5.0,95,0.00,,BKN110,0.36,VWS V14.01,2013-01-25 06:30:00,
2013-01-24 22:35:00,56.9,55.5,30.14,WNW,292,1.0,4.0,95,0.00,,BKN110,0.36,VWS V14.01,2013-01-25 06:35:00,
2013-01-24 22:40:00,56.9,55.5,30.14,NNW,338,0.0,3.0,95,0.00,,BKN110,0.36,VWS V14.01,2013-01-25 06:40:00,
2013-01-24 22:45:00,56.9,55.5,30.14,NW,315,1.0,3.0,95,0.00,,BKN110,0.36,VWS V14.01,2013-01-25 06:45:00,
2013-01-24 22:50:00,56.7,55.3,30.14,NW,315,1.0,3.0,95,0.00,,BKN110,0.36,VWS V14.01,2013-01-25 06:50:00,
2013-01-24 22:55:00,56.7,55.3,30.14,WNW,292,0.0,4.0,95,0.00,,BKN110,0.36,VWS V14.01,2013-01-25 06:55:00,
2013-01-24 23:00:00,56.7,55.3,30.14,WNW,292,2.0,4.0,95,0.00,,BKN110,0.36,VWS V14.01,2013-01-25 07:00:00,
2013-01-24 23:05:00,56.7,55.3,30.14,West,270,0.0,3.0,95,0.00,,BKN110,0.36,VWS V14.01,2013-01-25 07:05:00,
2013-01-24 23:10:00,56.7,55.3,30.14,WNW,292,0.0,4.0,95,0.00,,BKN110,0.36,VWS V14.01,2013-01-25 07:10:00,
2013-01-24 23:15:00,56.7,55.3,30.14,WNW,292,1.0,5.0,95,0.00,,BKN110,0.36,VWS V14.01,2013-01-25 07:15:00,
2013-01-24 23:20:00,56.7,55.3,30.14,WNW,292,1.0,3.0,95,0.00,,BKN110,0.36,VWS V14.01,2013-01-25 07:20:00,
2013-01-24 23:25:00,56.7,55.3,30.14,WNW,292,1.0,4.0,95,0.00,,BKN110,0.36,VWS V14.01,2013-01-25 07:25:00,
2013-01-24 23:30:00,56.7,55.3,30.15,WNW,292,1.0,3.0,95,0.00,,BKN110,0.36,VWS V14.01,2013-01-25 07:30:00,
2013-01-24 23:35:00,56.7,55.3,30.15,WNW,292,1.0,4.0,95,0.01,,BKN110,0.37,VWS V14.01,2013-01-25 07:35:00,
2013-01-24 23:40:00,56.7,55.3,30.15,WNW,292,2.0,5.0,95,0.01,,BKN110,0.37,VWS V14.01,2013-01-25 07:40:00,
2013-01-24 23:45:00,56.7,55.3,30.14,WNW,292,0.0,2.0,95,0.01,,BKN110,0.37,VWS V14.01,2013-01-25 07:45:00,
2013-01-24 23:50:00,56.7,55.3,30.14,WNW,292,0.0,3.0,95,0.01,,BKN110,0.37,VWS V14.01,2013-01-25 07:50:00,
2013-01-24 23:55:00,56.7,55.3,30.14,WNW,292,0.0,2.0,95,0.01,,BKN110,0.37,VWS V14.01,2013-01-25 07:55:00,